DW7531 Weather Reports


Display with metric or nautical units.
time (UTC)temp
F
wind
direction
speed
MPH
gust
MPH
rain 1hr
in
rain 24hr
in
rain mn
in
humidity
%
barometer
mb
20260507061554 60 264 0.0 0.0 0.00 0.00 0.00 69 1016.5
20260507060053 60 264 0.0 0.0 0.00 0.00 0.00 69 1016.6
20260507054606 60 264 0.0 0.0 0.00 0.00 0.00 69 1016.5
20260507053052 60 264 0.0 0.0 0.00 0.00 0.00 68 1016.5
20260507051554 61 264 0.0 0.0 0.00 0.00 0.00 66 1016.4
20260507050051 62 264 0.0 0.0 0.00 0.00 0.00 67 1016.4
20260507044552 62 264 0.0 0.0 0.00 0.00 0.00 66 1016.4
20260507043058 63 264 0.0 0.0 0.00 0.00 0.00 65 1016.3
20260507041602 63 264 0.0 2.0 0.00 0.00 0.00 65 1016.2
20260507040055 64 264 0.0 5.0 0.00 0.00 0.00 63 1015.9
20260507034553 64 264 0.0 5.0 0.00 0.00 0.00 62 1015.7
20260507033050 65 264 2.0 6.0 0.00 0.00 0.00 60 1015.5
20260507031550 66 265 3.0 9.0 0.00 0.00 0.00 59 1015.4
20260507030057 68 280 4.0 8.0 0.00 0.00 0.00 56 1015.2
20260507024548 69 286 1.0 7.0 0.00 0.00 0.00 53 1015.0
20260507023058 70 286 0.0 3.0 0.00 0.00 0.00 50 1014.9
20260507021551 72 287 0.0 6.0 0.00 0.00 0.00 48 1014.6
20260507020046 73 292 0.0 5.0 0.00 0.00 0.00 46 1014.5
20260507014557 74 302 0.0 3.0 0.00 0.00 0.00 45 1014.4
20260507013103 75 302 0.0 6.0 0.00 0.00 0.00 43 1014.3
20260507011544 76 263 0.0 8.0 0.00 0.00 0.00 43 1014.1
20260507010043 76 261 0.0 4.0 0.00 0.00 0.00 43 1014.1
20260507004542 77 262 2.0 8.0 0.00 0.00 0.00 43 1014.1
20260507003041 78 265 3.0 8.0 0.00 0.00 0.00 42 1014.0
20260507001554 78 257 0.0 5.0 0.00 0.00 0.00 42 1013.9
20260507000039 78 292 0.0 7.0 0.00 0.00 0.00 42 1013.8
20260506234538 78 348 0.0 10.0 0.00 0.00 0.00 41 1013.8
20260506233043 79 269 1.0 9.0 0.00 0.00 0.00 40 1013.9
20260506231540 79 342 2.0 8.0 0.00 0.00 0.00 40 1013.9
20260506230034 81 350 1.0 6.0 0.00 0.00 0.00 36 1014.0
20260506224533 81 298 2.0 7.0 0.00 0.00 0.00 36 1014.2
20260506223030 81 290 0.0 8.0 0.00 0.00 0.00 36 1014.4
20260506221529 80 293 3.0 8.0 0.00 0.00 0.00 35 1014.5
20260506220028 81 313 1.0 6.0 0.00 0.00 0.00 33 1014.7
20260506214524 79 267 2.0 8.0 0.00 0.00 0.00 37 1014.9
20260506213022 80 272 2.0 13.0 0.00 0.00 0.00 36 1015.1
20260506211520 79 286 0.0 7.0 0.00 0.00 0.00 40 1015.2
20260506210018 77 265 0.0 8.0 0.00 0.00 0.00 40 1015.5
20260506204518 79 247 0.0 8.0 0.00 0.00 0.00 38 1015.7
20260506203016 77 259 2.0 8.0 0.00 0.00 0.00 38 1015.7
20260506201512 77 317 1.0 9.0 0.00 0.00 0.00 39 1016.1
20260506200012 77 343 1.0 8.0 0.00 0.00 0.00 40 1016.3
20260506194511 79 11 1.0 6.0 0.00 0.00 0.00 39 1016.4
20260506193005 77 254 0.0 7.0 0.00 0.00 0.00 41 1016.7
20260506191502 78 189 0.0 3.0 0.00 0.00 0.00 41 1016.9
20260506190100 75 188 0.0 4.0 0.00 0.00 0.00 42 1017.0
20260506184557 74 186 0.0 4.0 0.00 0.00 0.00 42 1017.2
20260506183055 74 185 0.0 4.0 0.00 0.00 0.00 43 1017.4
20260506181550 71 175 0.0 4.0 0.00 0.00 0.00 46 1017.5
20260506180052 71 171 0.0 4.0 0.00 0.00 0.00 46 1017.6
20260506174545 70 171 0.0 0.0 0.00 0.00 0.00 49 1017.6
20260506173041 69 171 0.0 0.0 0.00 0.00 0.00 50 1017.7
20260506171548 69 171 0.0 0.0 0.00 0.00 0.00 53 1017.7
20260506170036 65 171 0.0 0.0 0.00 0.00 0.00 55 1017.8
20260506164528 64 170 0.0 0.0 0.00 0.00 0.00 56 1017.9
20260506163027 64 169 0.0 0.0 0.00 0.00 0.00 56 1017.9
20260506161534 63 169 0.0 0.0 0.00 0.00 0.00 62 1017.9
20260506160016 61 169 0.0 0.0 0.00 0.00 0.00 64 1018.0
20260506154512 59 179 0.0 0.0 0.00 0.00 0.00 69 1017.9
20260506153009 58 182 0.0 0.0 0.00 0.00 0.00 75 1017.9
20260506151502 55 183 0.0 0.0 0.00 0.00 0.00 79 1018.0
20260506150104 54 183 0.0 0.0 0.00 0.00 0.00 81 1018.1
20260506144554 53 183 0.0 0.0 0.00 0.00 0.00 84 1018.1
20260506143051 52 187 0.0 3.0 0.00 0.00 0.00 85 1018.0
20260506141544 50 221 0.0 0.0 0.00 0.00 0.00 86 1018.0
20260506140045 48 226 0.0 2.0 0.00 0.00 0.00 86 1017.9
20260506134606 48 226 0.0 0.0 0.00 0.00 0.00 86 1017.8
20260506133032 47 226 0.0 0.0 0.00 0.00 0.00 86 1017.6
20260506131532 47 226 0.0 0.0 0.00 0.00 0.00 86 1017.5
20260506130028 47 226 0.0 0.0 0.00 0.00 0.00 86 1017.5
20260506124527 47 226 0.0 0.0 0.00 0.01 0.00 85 1017.3
20260506123026 47 226 0.0 0.0 0.00 0.01 0.00 85 1017.2
20260506121524 47 226 0.0 0.0 0.00 0.01 0.00 85 1017.2
20260506120024 47 226 0.0 0.0 0.00 0.01 0.00 84 1017.0
20260506114532 47 226 0.0 0.0 0.00 0.01 0.00 84 1017.1
20260506113024 47 226 0.0 0.0 0.00 0.01 0.00 83 1017.2
20260506111520 48 226 0.0 0.0 0.00 0.01 0.00 83 1017.1
20260506110019 48 226 0.0 0.0 0.00 0.01 0.00 82 1017.0
20260506104518 48 226 0.0 0.0 0.00 0.01 0.00 82 1017.0
20260506103023 48 226 0.0 0.0 0.00 0.01 0.00 81 1017.1
20260506101514 49 226 0.0 0.0 0.00 0.01 0.00 81 1016.9
20260506100023 49 226 0.0 0.0 0.00 0.01 0.00 81 1016.9
20260506094516 49 226 0.0 0.0 0.00 0.01 0.00 81 1017.0
20260506093012 49 226 0.0 0.0 0.00 0.01 0.00 81 1017.0
20260506091511 49 226 0.0 0.0 0.00 0.01 0.00 81 1017.1
20260506090009 49 226 0.0 0.0 0.00 0.01 0.00 80 1017.0
20260506084508 49 226 0.0 0.0 0.00 0.01 0.00 79 1017.1
20260506083006 50 226 0.0 0.0 0.00 0.01 0.00 78 1017.2
20260506081506 50 226 0.0 0.0 0.00 0.01 0.00 77 1017.2
20260506073059 52 226 0.0 0.0 0.00 0.01 0.00 74 1017.4
20260506071557 52 226 0.0 0.0 0.00 0.01 0.00 73 1017.3
20260506070116 52 226 0.0 0.0 0.00 0.01 0.00 73 1017.2